SV4RJB-13 Weather Reports


time (UTC)temp
C
wind
direction
speed
KPH
gust
KPH
rain 1hr
cm
rain 24hr
cm
rain mn
cm
humidity
%
barometer
mb
20260504020913 6 0.0 0.0 0.00 0.00 0.00 81 1008.4
20260504015913 7 0.0 0.0 0.00 0.00 0.00 78 1008.4
20260504014914 6 0.0 0.0 0.00 0.00 0.00 80 1008.4
20260504013913 7 0.0 0.0 0.00 0.00 0.00 76 1008.4
20260504012913 6 0.0 0.0 0.00 0.00 0.00 80 1008.2
20260504011912 7 0.0 0.0 0.00 0.00 0.00 79 1008.2
20260504010912 6 0.0 0.0 0.00 0.00 0.00 79 1008.1
20260504005912 6 0.0 0.0 0.00 0.00 0.00 80 1007.9
20260504004913 7 0.0 0.0 0.00 0.00 0.00 77 1007.9
20260504003912 8 0.0 0.0 0.00 0.00 0.00 76 1007.9
20260504002913 8 0.0 0.0 0.00 0.00 0.00 71 1007.9
20260504001913 8 0.0 0.0 0.00 0.00 0.00 74 1008.0
20260504000913 7 0.0 0.0 0.00 0.00 0.00 75 1007.9
20260503235913 7 0.0 0.0 0.00 0.00 0.00 77 1007.9
20260503234914 7 0.0 0.0 0.00 0.00 0.00 79 1007.8
20260503233913 7 0.0 0.0 0.00 0.00 0.00 77 1008.0
20260503232913 7 0.0 0.0 0.00 0.00 0.00 76 1008.1
20260503231913 7 0.0 0.0 0.00 0.00 0.00 75 1008.2
20260503230912 7 0.0 0.0 0.00 0.00 0.00 76 1008.2
20260503224912 7 0.0 0.0 0.00 0.00 0.00 76 1008.1
20260503222913 8 0.0 0.0 0.00 0.00 0.00 74 1008.1
20260503221913 8 0.0 0.0 0.00 0.00 0.00 77 1008.1
20260503220912 8 0.0 0.0 0.00 0.00 0.00 78 1008.2
20260503214912 8 0.0 0.0 0.00 0.00 0.00 76 1008.2
20260503212912 9 0.0 0.0 0.00 0.00 0.00 72 1008.1
20260503211912 10 0.0 0.0 0.00 0.00 0.00 72 1008.1
20260503210913 10 0.0 0.0 0.00 0.00 0.00 73 1008.2
20260503205912 8 0.0 0.0 0.00 0.00 0.00 76 1008.2
20260503204912 8 0.0 0.0 0.00 0.00 0.00 75 1008.2
20260503202913 9 0.0 0.0 0.00 0.00 0.00 75 1008.3
20260503201913 9 0.0 0.0 0.00 0.00 0.00 76 1008.3
20260503200914 9 0.0 0.0 0.00 0.00 0.00 75 1008.3
20260503195913 9 0.0 0.0 0.00 0.00 0.00 75 1008.4
20260503193913 10 0.0 0.0 0.00 0.00 0.00 69 1008.3
20260503192913 11 0.0 0.0 0.00 0.00 0.00 66 1008.3
20260503191913 11 0.0 0.0 0.00 0.00 0.00 66 1008.3
20260503190913 11 0.0 0.0 0.00 0.00 0.00 68 1008.2
20260503185914 10 0.0 0.0 0.00 0.00 0.00 71 1008.0
20260503184913 10 0.0 0.0 0.00 0.00 0.00 71 1008.0
20260503183912 10 0.0 0.0 0.00 0.00 0.00 72 1007.9
20260503181912 10 0.0 0.0 0.00 0.00 0.00 69 1007.7
20260503175913 11 0.0 0.0 0.00 0.00 0.00 65 1007.6
20260503174912 12 0.0 0.0 0.00 0.00 0.00 60 1007.6
20260503173912 12 0.0 0.0 0.00 0.00 0.00 57 1007.6
20260503172912 13 0.0 0.0 0.00 0.00 0.00 53 1007.5
20260503171913 13 0.0 0.0 0.00 0.00 0.00 51 1007.4
20260503170913 13 0.0 0.0 0.00 0.00 0.00 51 1007.3
20260503150913 13 0.0 0.0 0.00 0.00 0.00 49 1007.3
20260503130912 13 0.0 0.0 0.00 0.00 0.00 51 1008.3
20260503080914 16 0.0 0.0 0.00 0.00 0.00 49 1007.4
20260503072913 13 0.0 0.0 0.00 0.00 0.00 65 1007.3
20260503071912 13 0.0 0.0 0.00 0.00 0.00 68 1007.3
20260503054911 14 0.0 0.0 0.00 0.00 0.00 63 1006.5
20260503052912 10 0.0 0.0 0.00 0.00 0.00 80 1006.7
20260503051913 10 0.0 0.0 0.00 0.00 0.00 78 1006.8
20260503050912 8 0.0 0.0 0.00 0.00 0.00 82 1006.5
20260503044913 8 0.0 0.0 0.00 0.00 0.00 80 1006.6
20260503043912 10 0.0 0.0 0.00 0.00 0.00 77 1006.7
20260503041913 8 0.0 0.0 0.00 0.00 0.00 80 1006.5
20260503040913 9 0.0 0.0 0.00 0.00 0.00 79 1006.4
20260503035912 9 0.0 0.0 0.00 0.00 0.00 80 1006.2
20260503034912 8 0.0 0.0 0.00 0.00 0.00 81 1006.2
20260503031913 8 0.0 0.0 0.00 0.00 0.00 84 1005.9
20260503030913 8 0.0 0.0 0.00 0.00 0.00 84 1006.1
20260503025913 8 0.0 0.0 0.00 0.00 0.00 81 1006.0
20260503024913 10 0.0 0.0 0.00 0.00 0.00 75 1006.1
20260503023912 10 0.0 0.0 0.00 0.00 0.00 75 1005.8
20260503022913 9 0.0 0.0 0.00 0.00 0.00 76 1005.8
20260503021913 10 0.0 0.0 0.00 0.00 0.00 73 1006.0